QPF
0.02 0.03 0.03 0.01 0.01 0.01 0.01 0.01 0.00 0.01 0.01 0.02 0.02 0.01 0.01 0.01 0.01 0.01 0.01 0.01 0.01 0.01 0.01 0.02 0.02 0.02 0.02 0.01 0.01 0.01 0.02 0.01 0.02 0.02 0.03 0.04 0.05 0.05 0.02 0.01 0.02 0.02 0.03 0.03
0.01 0.02 0.02 0.01 0.02 0.01 0.00 0.00 0.00 0.00 0.00 0.01 0.01 0.01 0.00 0.01 0.01 0.01 0.01 0.01 0.01 0.01 0.01 0.01 0.01 0.01 0.01 0.01 0.01 0.01 0.01 0.00 0.01 0.01 0.01 0.02 0.03 0.04 0.06 0.03 0.02 0.02 0.02 0.02
0.01 0.01 0.01 0.02 0.02 0.01 0.01 0.01 0.01 0.01 0.01 0.01 0.00 0.00 0.00 0.00 0.01 0.01 0.01 0.01 0.01 0.01 0.01 0.01 0.02 0.02 0.02 0.01 0.01 0.01 0.01 0.00 0.01 0.01 0.01 0.01 0.01 0.02 0.03 0.04 0.04 0.03 0.02 0.02
0.01 0.01 0.01 0.02 0.02 0.01 0.01 0.00 0.01 0.02 0.02 0.02 0.01 0.00 0.00 0.00 0.00 0.01 0.00 0.01 0.01 0.01 0.01 0.01 0.02 0.01 0.02 0.02 0.02 0.01 0.01 0.00 0.01 0.02 0.01 0.01 0.01 0.02 0.02 0.03 0.04 0.05 0.04 0.03
0.01 0.01 0.01 0.02 0.01 0.01 0.01 0.01 0.01 0.01 0.01 0.02 0.02 0.01 0.01 0.00 0.00 0.00 0.00 0.01 0.01 0.01 0.01 0.01 0.01 0.01 0.01 0.01 0.02 0.01 0.00 0.00 0.01 0.02 0.01 0.01 0.01 0.01 0.02 0.03 0.03 0.04 0.05 0.05
0.01 0.01 0.01 0.01 0.01 0.01 0.01 0.01 0.02 0.01 0.01 0.01 0.01 0.02 0.01 0.01 0.00 0.00 0.00 0.00 0.00 0.01 0.01 0.01 0.01 0.01 0.01 0.01 0.01 0.02 0.01 0.01 0.02 0.02 0.02 0.01 0.01 0.02 0.02 0.02 0.03 0.03 0.04 0.06
0.01 0.01 0.01 0.01 0.01 0.02 0.01 0.03 0.03 0.02 0.01 0.01 0.00 0.01 0.02 0.01 0.00 0.00 0.00 0.00 0.00 0.01 0.01 0.01 0.00 0.01 0.01 0.01 0.02 0.02 0.02 0.02 0.01 0.01 0.02 0.02 0.02 0.02 0.02 0.03 0.03 0.04 0.04 0.03
0.01 0.01 0.01 0.01 0.01 0.02 0.01 0.02 0.02 0.02 0.01 0.01 0.01 0.01 0.01 0.01 0.00 0.00 0.00 0.00 0.01 0.01 0.02 0.01 0.00 0.00 0.00 0.01 0.02 0.03 0.03 0.02 0.01 0.02 0.03 0.03 0.02 0.02 0.02 0.03 0.03 0.03 0.04 0.04
0.01 0.01 0.01 0.01 0.00 0.01 0.01 0.01 0.01 0.01 0.01 0.01 0.02 0.02 0.01 0.00 0.00 0.00 0.00 0.01 0.01 0.01 0.01 0.01 0.00 0.00 0.00 0.01 0.02 0.02 0.03 0.02 0.01 0.02 0.03 0.03 0.03 0.03 0.03 0.03 0.03 0.03 0.03 0.04
0.00 0.00 0.01 0.01 0.01 0.01 0.01 0.01 0.02 0.02 0.01 0.01 0.01 0.02 0.01 0.00 0.00 0.00 0.00 0.01 0.01 0.01 0.01 0.00 0.00 0.00 0.00 0.01 0.01 0.01 0.02 0.02 0.02 0.02 0.03 0.04 0.04 0.04 0.04 0.05 0.04 0.03 0.03 0.03
0.00 0.01 0.01 0.01 0.01 0.01 0.01 0.01 0.02 0.02 0.02 0.02 0.02 0.02 0.01 0.01 0.00 0.00 0.00 0.00 0.00 0.00 0.00 0.00 0.00 0.01 0.01 0.01 0.01 0.02 0.02 0.02 0.02 0.02 0.03 0.02 0.02 0.03 0.03 0.03 0.02 0.02 0.03 0.03
0.00 0.01 0.01 0.01 0.02 0.02 0.02 0.01 0.01 0.01 0.01 0.02 0.04 0.03 0.02 0.01 0.01 0.00 0.00 0.00 0.00 0.01 0.01 0.01 0.01 0.01 0.01 0.01 0.02 0.02 0.01 0.01 0.02 0.02 0.02 0.01 0.02 0.02 0.02 0.03 0.03 0.03 0.03 0.02
0.00 0.01 0.01 0.01 0.02 0.03 0.03 0.02 0.01 0.02 0.02 0.02 0.03 0.03 0.02 0.01 0.01 0.01 0.00 0.01 0.01 0.01 0.01 0.01 0.01 0.02 0.02 0.02 0.02 0.03 0.03 0.03 0.03 0.03 0.02 0.01 0.02 0.02 0.02 0.02 0.03 0.02 0.02 0.02
0.01 0.01 0.01 0.01 0.01 0.01 0.01 0.01 0.01 0.01 0.01 0.01 0.01 0.01 0.01 0.01 0.01 0.01 0.01 0.02 0.01 0.01 0.01 0.01 0.01 0.01 0.01 0.02 0.02 0.02 0.03 0.02 0.02 0.02 0.02 0.02 0.02 0.03 0.03 0.03 0.03 0.03 0.03 0.02
0.01 0.01 0.00 0.00 0.00 0.01 0.01 0.01 0.01 0.00 0.00 0.01 0.01 0.00 0.01 0.01 0.01 0.01 0.01 0.01 0.01 0.01 0.01 0.01 0.01 0.01 0.01 0.01 0.01 0.01 0.02 0.01 0.01 0.01 0.01 0.02 0.03 0.03 0.03 0.03 0.03 0.03 0.03 0.03
0.01 0.00 0.01 0.00 0.00 0.00 0.00 0.01 0.01 0.01 0.01 0.00 0.00 0.00 0.01 0.00 0.01 0.01 0.01 0.01 0.01 0.01 0.01 0.01 0.01 0.01 0.01 0.01 0.00 0.01 0.01 0.01 0.01 0.01 0.01 0.01 0.02 0.02 0.03 0.04 0.04 0.04 0.03 0.03
0.00 0.00 0.01 0.01 0.01 0.00 0.01 0.01 0.01 0.01 0.01 0.00 0.00 0.00 0.00 0.01 0.01 0.01 0.01 0.01 0.01 0.00 0.00 0.00 0.00 0.00 0.00 0.00 0.00 0.00 0.00 0.01 0.02 0.02 0.02 0.01 0.02 0.03 0.03 0.04 0.04 0.03 0.03 0.03
0.00 0.00 0.00 0.01 0.01 0.00 0.00 0.01 0.01 0.01 0.01 0.00 0.00 0.00 0.00 0.00 0.00 0.00 0.00 0.00 0.00 0.00 0.00 0.00 0.00 0.00 0.00 0.00 0.00 0.01 0.01 0.01 0.01 0.02 0.02 0.02 0.02 0.02 0.03 0.03 0.03 0.03 0.03 0.03
0.00 0.00 0.00 0.00 0.00 0.00 0.00 0.00 0.01 0.01 0.02 0.01 0.01 0.00 0.00 0.00 0.00 0.00 0.00 0.00 0.00 0.01 0.01 0.00 0.00 0.00 0.00 0.00 0.01 0.01 0.01 0.01 0.01 0.01 0.01 0.02 0.02 0.03 0.03 0.03 0.03 0.03 0.03 0.03
0.00 0.00 0.00 0.00 0.00 0.00 0.00 0.00 0.01 0.00 0.01 0.01 0.01 0.01 0.01 0.00 0.00 0.00 0.00 0.00 0.00 0.00 0.01 0.00 0.00 0.00 0.00 0.01 0.01 0.01 0.01 0.01 0.01 0.01 0.01 0.01 0.02 0.03 0.03 0.04 0.04 0.03 0.03 0.04
0.00 0.00 0.00 0.00 0.00 0.00 0.00 0.00 0.00 0.00 0.01 0.01 0.01 0.01 0.02 0.01 0.01 0.01 0.00 0.00 0.00 0.00 0.00 0.01 0.00 0.00 0.00 0.01 0.01 0.02 0.02 0.02 0.02 0.01 0.01 0.01 0.01 0.02 0.02 0.03 0.04 0.04 0.06 0.06
0.00 0.00 0.00 0.00 0.01 0.01 0.00 0.00 0.00 0.00 0.00 0.00 0.00 0.01 0.01 0.02 0.01 0.01 0.00 0.00 0.00 0.00 0.00 0.00 0.01 0.01 0.01 0.01 0.02 0.02 0.02 0.03 0.03 0.02 0.01 0.01 0.01 0.02 0.03 0.04 0.04 0.04 0.05 0.07
0.01 0.00 0.00 0.00 0.00 0.00 0.00 0.00 0.00 0.00 0.00 0.00 0.00 0.00 0.01 0.01 0.01 0.01 0.01 0.00 0.00 0.00 0.00 0.00 0.00 0.00 0.01 0.01 0.01 0.01 0.02 0.03 0.03 0.02 0.02 0.02 0.01 0.01 0.02 0.03 0.03 0.03 0.03 0.05
0.01 0.01 0.01 0.00 0.00 0.00 0.00 0.00 0.00 0.00 0.00 0.00 0.00 0.00 0.00 0.01 0.01 0.01 0.01 0.01 0.01 0.01 0.01 0.01 0.01 0.01 0.01 0.01 0.01 0.02 0.02 0.02 0.02 0.02 0.02 0.01 0.01 0.02 0.02 0.03 0.03 0.03 0.03 0.03
0.01 0.02 0.01 0.00 0.00 0.00 0.00 0.00 0.00 0.00 0.00 0.00 0.00 0.00 0.00 0.01 0.00 0.00 0.01 0.01 0.01 0.01 0.01 0.01 0.01 0.01 0.01 0.01 0.01 0.01 0.02 0.02 0.02 0.02 0.02 0.02 0.02 0.03 0.04 0.03 0.03 0.04 0.03 0.03
0.00 0.01 0.01 0.01 0.00 0.00 0.00 0.00 0.00 0.00 0.00 0.00 0.00 0.00 0.00 0.00 0.00 0.00 0.01 0.01 0.01 0.01 0.01 0.01 0.01 0.01 0.02 0.01 0.01 0.01 0.01 0.02 0.02 0.01 0.02 0.02 0.04 0.04 0.04 0.03 0.03 0.02 0.02 0.02
MSLP
1014.11 1014.77 1015.26 1015.60 1015.88 1016.16 1016.54 1017.05 1017.70 1018.44 1019.18 1019.81 1020.24 1020.40 1020.26 1019.85 1019.23 1018.51 1017.78 1017.12 1016.56 1016.11 1015.76 1015.46 1015.16 1014.84 1014.46 1014.06 1013.66 1013.31 1013.04 1012.87 1012.81 1012.83 1012.90 1012.99 1013.05 1013.08 1013.08 1013.06 1013.06 1013.11 1013.22 1013.40
1014.80 1015.33 1015.67 1015.88 1016.05 1016.28 1016.65 1017.22 1017.99 1018.87 1019.77 1020.56 1021.14 1021.42 1021.37 1021.01 1020.43 1019.73 1019.00 1018.33 1017.77 1017.31 1016.93 1016.59 1016.22 1015.79 1015.30 1014.76 1014.21 1013.70 1013.30 1013.01 1012.85 1012.80 1012.82 1012.86 1012.90 1012.89 1012.86 1012.81 1012.77 1012.79 1012.88 1013.06
1015.43 1015.80 1015.98 1016.05 1016.12 1016.29 1016.67 1017.30 1018.16 1019.18 1020.22 1021.16 1021.86 1022.24 1022.27 1021.97 1021.42 1020.74 1020.02 1019.36 1018.80 1018.33 1017.94 1017.56 1017.14 1016.64 1016.06 1015.42 1014.76 1014.14 1013.62 1013.23 1012.99 1012.86 1012.82 1012.81 1012.79 1012.75 1012.67 1012.58 1012.51 1012.49 1012.56 1012.73
1016.05 1016.25 1016.27 1016.21 1016.19 1016.32 1016.71 1017.40 1018.36 1019.48 1020.64 1021.69 1022.48 1022.94 1023.02 1022.76 1022.23 1021.56 1020.85 1020.19 1019.62 1019.16 1018.75 1018.36 1017.91 1017.38 1016.75 1016.04 1015.32 1014.62 1014.03 1013.56 1013.23 1013.03 1012.91 1012.83 1012.75 1012.65 1012.52 1012.37 1012.26 1012.21 1012.26 1012.42
1016.72 1016.75 1016.63 1016.46 1016.37 1016.49 1016.90 1017.64 1018.67 1019.88 1021.12 1022.23 1023.08 1023.57 1023.68 1023.42 1022.90 1022.22 1021.51 1020.85 1020.28 1019.82 1019.42 1019.02 1018.58 1018.04 1017.40 1016.67 1015.92 1015.18 1014.53 1014.00 1013.60 1013.31 1013.11 1012.94 1012.78 1012.60 1012.39 1012.19 1012.02 1011.94 1011.96 1012.09
1017.46 1017.36 1017.12 1016.88 1016.75 1016.86 1017.30 1018.09 1019.17 1020.42 1021.69 1022.82 1023.68 1024.16 1024.25 1023.99 1023.46 1022.78 1022.06 1021.40 1020.84 1020.39 1020.00 1019.63 1019.20 1018.68 1018.05 1017.34 1016.58 1015.83 1015.14 1014.56 1014.08 1013.71 1013.41 1013.14 1012.87 1012.59 1012.29 1012.01 1011.79 1011.65 1011.64 1011.75
1018.28 1018.07 1017.76 1017.47 1017.34 1017.47 1017.93 1018.74 1019.83 1021.08 1022.33 1023.43 1024.25 1024.69 1024.75 1024.46 1023.92 1023.24 1022.54 1021.90 1021.37 1020.94 1020.58 1020.24 1019.84 1019.36 1018.76 1018.08 1017.33 1016.57 1015.86 1015.22 1014.68 1014.21 1013.79 1013.40 1013.02 1012.62 1012.23 1011.86 1011.56 1011.36 1011.30 1011.38
1019.12 1018.85 1018.51 1018.22 1018.10 1018.25 1018.73 1019.54 1020.60 1021.80 1022.98 1024.00 1024.73 1025.12 1025.13 1024.82 1024.28 1023.63 1022.97 1022.38 1021.89 1021.51 1021.20 1020.90 1020.54 1020.10 1019.54 1018.88 1018.15 1017.39 1016.65 1015.96 1015.34 1014.77 1014.25 1013.74 1013.23 1012.71 1012.20 1011.74 1011.36 1011.09 1010.97 1011.00
1019.91 1019.62 1019.29 1019.03 1018.94 1019.12 1019.60 1020.38 1021.38 1022.48 1023.54 1024.44 1025.07 1025.37 1025.35 1025.03 1024.53 1023.93 1023.35 1022.84 1022.43 1022.12 1021.87 1021.61 1021.30 1020.89 1020.36 1019.71 1018.99 1018.22 1017.46 1016.72 1016.03 1015.38 1014.75 1014.12 1013.50 1012.87 1012.26 1011.69 1011.22 1010.88 1010.68 1010.65
1020.56 1020.31 1020.03 1019.82 1019.78 1019.98 1020.45 1021.16 1022.06 1023.03 1023.94 1024.70 1025.21 1025.43 1025.37 1025.07 1024.63 1024.13 1023.66 1023.26 1022.96 1022.73 1022.54 1022.34 1022.06 1021.67 1021.15 1020.51 1019.79 1019.01 1018.23 1017.45 1016.71 1015.98 1015.27 1014.56 1013.84 1013.11 1012.40 1011.75 1011.19 1010.75 1010.48 1010.36
1021.02 1020.85 1020.66 1020.53 1020.55 1020.76 1021.20 1021.83 1022.59 1023.40 1024.14 1024.73 1025.12 1025.27 1025.20 1024.95 1024.60 1024.23 1023.89 1023.62 1023.43 1023.30 1023.17 1023.00 1022.74 1022.35 1021.83 1021.19 1020.47 1019.68 1018.88 1018.09 1017.32 1016.56 1015.80 1015.03 1014.24 1013.44 1012.66 1011.93 1011.28 1010.76 1010.39 1010.18
1021.33 1021.26 1021.17 1021.13 1021.20 1021.43 1021.81 1022.34 1022.96 1023.59 1024.15 1024.59 1024.86 1024.95 1024.88 1024.70 1024.46 1024.22 1024.03 1023.89 1023.82 1023.76 1023.68 1023.53 1023.27 1022.87 1022.34 1021.69 1020.96 1020.18 1019.39 1018.60 1017.83 1017.06 1016.29 1015.50 1014.68 1013.85 1013.02 1012.22 1011.50 1010.89 1010.42 1010.11
1021.54 1021.58 1021.60 1021.64 1021.76 1021.99 1022.32 1022.73 1023.19 1023.65 1024.04 1024.34 1024.51 1024.55 1024.50 1024.39 1024.26 1024.15 1024.09 1024.08 1024.09 1024.10 1024.04 1023.89 1023.61 1023.19 1022.64 1021.98 1021.26 1020.49 1019.72 1018.97 1018.23 1017.49 1016.73 1015.95 1015.13 1014.28 1013.42 1012.58 1011.80 1011.12 1010.56 1010.15
1021.74 1021.88 1022.00 1022.12 1022.27 1022.47 1022.73 1023.04 1023.35 1023.64 1023.88 1024.05 1024.14 1024.16 1024.13 1024.09 1024.06 1024.07 1024.12 1024.19 1024.26 1024.29 1024.24 1024.06 1023.75 1023.30 1022.73 1022.07 1021.36 1020.62 1019.90 1019.19 1018.50 1017.80 1017.08 1016.33 1015.52 1014.67 1013.80 1012.93 1012.11 1011.37 1010.75 1010.26
1022.01 1022.24 1022.42 1022.58 1022.74 1022.91 1023.10 1023.28 1023.46 1023.62 1023.73 1023.80 1023.83 1023.83 1023.83 1023.85 1023.91 1024.00 1024.13 1024.25 1024.35 1024.37 1024.29 1024.08 1023.72 1023.24 1022.66 1022.00 1021.31 1020.62 1019.94 1019.29 1018.64 1017.99 1017.31 1016.58 1015.79 1014.95 1014.07 1013.19 1012.35 1011.58 1010.92 1010.38
1022.41 1022.68 1022.89 1023.06 1023.20 1023.31 1023.41 1023.49 1023.55 1023.59 1023.61 1023.61 1023.60 1023.61 1023.65 1023.72 1023.84 1023.99 1024.15 1024.29 1024.38 1024.37 1024.24 1023.98 1023.58 1023.07 1022.48 1021.83 1021.17 1020.52 1019.89 1019.28 1018.68 1018.05 1017.39 1016.66 1015.87 1015.03 1014.14 1013.26 1012.41 1011.64 1010.98 1010.44
1022.92 1023.19 1023.38 1023.52 1023.60 1023.64 1023.65 1023.64 1023.60 1023.56 1023.52 1023.48 1023.47 1023.49 1023.56 1023.68 1023.84 1024.01 1024.18 1024.31 1024.36 1024.31 1024.13 1023.82 1023.39 1022.86 1022.26 1021.63 1021.00 1020.37 1019.77 1019.19 1018.59 1017.97 1017.29 1016.54 1015.73 1014.86 1013.97 1013.08 1012.25 1011.51 1010.88 1010.37
1023.46 1023.69 1023.83 1023.90 1023.90 1023.86 1023.79 1023.69 1023.59 1023.49 1023.42 1023.38 1023.38 1023.43 1023.54 1023.70 1023.88 1024.06 1024.22 1024.32 1024.32 1024.22 1023.99 1023.64 1023.18 1022.64 1022.04 1021.43 1020.82 1020.22 1019.62 1019.03 1018.41 1017.74 1017.01 1016.21 1015.35 1014.44 1013.53 1012.65 1011.85 1011.15 1010.58 1010.15
1023.95 1024.10 1024.16 1024.14 1024.05 1023.92 1023.77 1023.61 1023.47 1023.35 1023.28 1023.26 1023.30 1023.39 1023.54 1023.72 1023.92 1024.10 1024.23 1024.29 1024.25 1024.10 1023.83 1023.44 1022.97 1022.43 1021.85 1021.25 1020.65 1020.05 1019.44 1018.81 1018.13 1017.40 1016.59 1015.71 1014.78 1013.82 1012.89 1012.02 1011.25 1010.62 1010.13 1009.79
1024.29 1024.36 1024.32 1024.20 1024.02 1023.82 1023.60 1023.41 1023.25 1023.14 1023.09 1023.11 1023.19 1023.33 1023.51 1023.72 1023.92 1024.08 1024.19 1024.21 1024.13 1023.94 1023.64 1023.24 1022.77 1022.24 1021.67 1021.08 1020.48 1019.87 1019.22 1018.53 1017.78 1016.96 1016.06 1015.10 1014.10 1013.10 1012.15 1011.29 1010.57 1010.01 1009.61 1009.37
1024.44 1024.41 1024.28 1024.07 1023.83 1023.57 1023.32 1023.12 1022.97 1022.89 1022.88 1022.95 1023.07 1023.25 1023.46 1023.67 1023.87 1024.01 1024.09 1024.08 1023.96 1023.74 1023.42 1023.02 1022.55 1022.03 1021.48 1020.89 1020.29 1019.65 1018.96 1018.21 1017.39 1016.48 1015.50 1014.47 1013.42 1012.40 1011.45 1010.62 1009.95 1009.46 1009.14 1008.99
1024.38 1024.28 1024.08 1023.81 1023.52 1023.24 1022.99 1022.80 1022.69 1022.65 1022.69 1022.80 1022.97 1023.17 1023.39 1023.60 1023.78 1023.89 1023.93 1023.88 1023.73 1023.49 1023.16 1022.76 1022.30 1021.79 1021.24 1020.66 1020.04 1019.38 1018.65 1017.85 1016.97 1016.01 1014.98 1013.92 1012.86 1011.84 1010.92 1010.14 1009.53 1009.10 1008.86 1008.76
1024.18 1024.02 1023.77 1023.48 1023.19 1022.92 1022.70 1022.55 1022.49 1022.50 1022.59 1022.74 1022.93 1023.14 1023.35 1023.53 1023.67 1023.75 1023.74 1023.65 1023.48 1023.21 1022.87 1022.46 1022.00 1021.49 1020.94 1020.36 1019.73 1019.04 1018.29 1017.46 1016.56 1015.59 1014.57 1013.52 1012.50 1011.54 1010.68 1009.97 1009.43 1009.06 1008.86 1008.79
1023.90 1023.70 1023.44 1023.17 1022.90 1022.68 1022.51 1022.43 1022.42 1022.49 1022.61 1022.78 1022.98 1023.18 1023.36 1023.50 1023.59 1023.61 1023.56 1023.42 1023.21 1022.92 1022.56 1022.13 1021.66 1021.14 1020.59 1019.98 1019.34 1018.64 1017.88 1017.06 1016.18 1015.25 1014.29 1013.32 1012.39 1011.53 1010.78 1010.16 1009.70 1009.39 1009.21 1009.15
1023.60 1023.39 1023.15 1022.91 1022.71 1022.56 1022.47 1022.46 1022.51 1022.63 1022.78 1022.96 1023.14 1023.30 1023.43 1023.52 1023.54 1023.50 1023.39 1023.21 1022.95 1022.63 1022.24 1021.79 1021.29 1020.75 1020.17 1019.54 1018.88 1018.17 1017.43 1016.64 1015.82 1014.98 1014.14 1013.31 1012.53 1011.82 1011.20 1010.71 1010.33 1010.07 1009.91 1009.82
1023.32 1023.12 1022.92 1022.75 1022.62 1022.55 1022.56 1022.62 1022.74 1022.89 1023.06 1023.23 1023.37 1023.49 1023.56 1023.58 1023.54 1023.44 1023.27 1023.04 1022.73 1022.37 1021.94 1021.45 1020.91 1020.33 1019.70 1019.04 1018.36 1017.65 1016.94 1016.21 1015.49 1014.78 1014.09 1013.44 1012.85 1012.32 1011.88 1011.51 1011.23 1011.03 1010.88 1010.77
Thickness
5717 5704 5695 5699 5703 5703 5699 5693 5690 5696 5707 5700 5695 5696 5701 5704 5704 5703 5702 5702 5703 5706 5709 5709 5708 5708 5706 5704 5702 5700 5698 5697 5695 5693 5690 5688 5686 5686 5685 5685 5684 5683 5682 5681
5701 5696 5706 5710 5707 5702 5697 5690 5689 5696 5704 5698 5692 5693 5701 5703 5703 5706 5705 5704 5704 5704 5705 5705 5705 5704 5702 5701 5699 5697 5695 5694 5692 5690 5688 5686 5684 5682 5681 5680 5680 5679 5677 5676
5696 5702 5712 5708 5701 5696 5693 5689 5690 5690 5695 5695 5690 5687 5694 5701 5704 5706 5707 5707 5706 5706 5704 5703 5702 5701 5700 5698 5697 5696 5693 5691 5689 5688 5685 5682 5679 5677 5675 5674 5674 5674 5673 5672
5697 5705 5706 5701 5698 5696 5686 5699 5697 5692 5681 5674 5682 5667 5686 5694 5697 5702 5704 5704 5706 5707 5706 5704 5702 5700 5699 5698 5697 5694 5691 5688 5686 5685 5682 5678 5674 5671 5670 5669 5669 5669 5668 5667
5694 5702 5700 5696 5699 5700 5694 5701 5695 5689 5679 5670 5674 5667 5676 5688 5691 5698 5703 5705 5706 5707 5706 5704 5702 5701 5699 5697 5695 5692 5689 5686 5683 5681 5679 5675 5672 5669 5667 5665 5664 5663 5663 5662
5697 5705 5703 5701 5705 5704 5699 5691 5683 5673 5666 5657 5669 5663 5669 5682 5693 5699 5705 5707 5707 5707 5705 5704 5702 5699 5697 5695 5692 5689 5686 5683 5680 5678 5675 5672 5669 5666 5663 5661 5659 5658 5657 5657
5685 5694 5701 5704 5695 5694 5689 5670 5653 5651 5645 5650 5668 5664 5671 5694 5700 5702 5704 5705 5706 5705 5703 5701 5698 5696 5694 5691 5689 5686 5683 5680 5677 5675 5672 5669 5667 5664 5661 5658 5656 5654 5652 5651
5668 5671 5690 5696 5692 5683 5680 5671 5650 5642 5640 5648 5663 5660 5679 5698 5702 5704 5704 5704 5703 5701 5700 5698 5697 5695 5692 5690 5687 5684 5680 5677 5674 5671 5669 5666 5664 5661 5659 5656 5653 5651 5649 5648
5664 5667 5690 5695 5696 5687 5673 5667 5669 5652 5648 5643 5651 5664 5681 5696 5697 5699 5699 5699 5697 5697 5696 5695 5694 5692 5690 5687 5684 5681 5678 5674 5671 5669 5666 5663 5660 5658 5655 5652 5650 5648 5646 5645
5673 5665 5680 5688 5690 5686 5680 5669 5654 5646 5638 5636 5649 5658 5667 5683 5688 5691 5692 5692 5692 5692 5691 5691 5690 5688 5686 5684 5681 5678 5675 5672 5669 5666 5662 5660 5656 5655 5652 5649 5646 5644 5642 5641
5675 5663 5668 5674 5674 5670 5667 5663 5655 5645 5643 5635 5636 5653 5682 5685 5688 5687 5688 5688 5687 5687 5687 5686 5685 5684 5682 5679 5676 5673 5670 5668 5664 5662 5658 5655 5653 5650 5647 5644 5642 5640 5638 5636
5668 5656 5651 5662 5675 5677 5671 5665 5654 5644 5641 5637 5634 5651 5685 5684 5684 5684 5684 5684 5684 5684 5683 5681 5680 5678 5675 5674 5671 5669 5667 5664 5661 5658 5654 5651 5648 5645 5642 5639 5637 5635 5633 5631
5664 5651 5641 5648 5656 5664 5663 5662 5658 5649 5638 5629 5629 5649 5677 5677 5678 5679 5679 5678 5677 5677 5677 5675 5673 5672 5670 5669 5667 5664 5662 5660 5657 5653 5649 5645 5642 5639 5637 5635 5632 5630 5628 5626
5667 5648 5643 5640 5644 5652 5654 5657 5654 5647 5634 5630 5636 5649 5663 5668 5670 5672 5672 5672 5671 5671 5670 5668 5667 5666 5665 5664 5662 5660 5657 5655 5653 5649 5645 5641 5637 5635 5633 5631 5628 5625 5623 5621
5660 5645 5646 5648 5652 5652 5652 5653 5651 5646 5644 5638 5644 5647 5658 5662 5664 5666 5667 5666 5666 5665 5664 5663 5661 5660 5659 5657 5656 5654 5652 5650 5648 5644 5640 5637 5634 5631 5628 5625 5623 5620 5617 5615
5648 5643 5642 5643 5647 5646 5645 5649 5648 5646 5646 5642 5644 5646 5658 5659 5658 5659 5660 5660 5660 5660 5660 5659 5657 5655 5654 5652 5651 5649 5647 5645 5642 5639 5636 5633 5629 5626 5623 5620 5617 5614 5611 5609
5636 5634 5629 5627 5634 5638 5633 5645 5646 5645 5646 5645 5640 5648 5652 5651 5652 5653 5654 5655 5655 5655 5655 5654 5653 5651 5650 5648 5646 5644 5642 5639 5636 5633 5630 5627 5624 5620 5617 5615 5611 5608 5606 5603
5630 5625 5616 5614 5622 5618 5638 5651 5650 5646 5647 5647 5648 5649 5649 5649 5650 5651 5651 5650 5649 5650 5649 5649 5647 5646 5645 5643 5641 5638 5635 5633 5630 5627 5623 5620 5617 5614 5611 5608 5605 5603 5600 5598
5629 5622 5608 5603 5606 5616 5634 5645 5644 5639 5640 5646 5644 5644 5644 5643 5642 5643 5647 5647 5646 5646 5645 5644 5643 5641 5638 5636 5634 5631 5628 5626 5623 5620 5617 5614 5611 5607 5604 5601 5599 5597 5594 5592
5619 5617 5607 5599 5603 5607 5630 5644 5646 5640 5632 5644 5642 5639 5636 5635 5627 5634 5642 5641 5640 5640 5639 5638 5636 5633 5631 5629 5626 5624 5621 5618 5616 5614 5612 5608 5604 5600 5597 5595 5593 5591 5589 5587
5607 5603 5599 5595 5598 5610 5631 5638 5638 5622 5629 5642 5640 5636 5632 5629 5630 5633 5635 5633 5633 5632 5632 5631 5629 5626 5624 5622 5619 5616 5613 5611 5610 5607 5604 5600 5597 5594 5591 5588 5586 5584 5582 5579
5603 5597 5593 5590 5592 5606 5631 5629 5626 5628 5635 5636 5634 5632 5629 5627 5627 5627 5627 5626 5625 5624 5623 5622 5620 5617 5615 5614 5612 5609 5606 5604 5601 5598 5595 5592 5589 5587 5584 5580 5578 5576 5574 5571
5600 5604 5601 5603 5609 5620 5624 5626 5629 5629 5628 5628 5627 5627 5624 5621 5620 5619 5618 5618 5617 5616 5614 5613 5611 5608 5606 5605 5604 5600 5598 5596 5593 5590 5586 5583 5581 5579 5576 5573 5570 5568 5566 5563
5597 5599 5597 5598 5608 5614 5617 5619 5621 5621 5622 5623 5623 5621 5619 5616 5614 5611 5610 5609 5608 5607 5605 5604 5602 5599 5597 5595 5594 5592 5590 5587 5585 5581 5577 5575 5572 5570 5568 5566 5563 5560 5558 5556
5595 5592 5591 5594 5602 5607 5612 5613 5614 5615 5615 5615 5615 5614 5613 5611 5607 5605 5602 5601 5600 5599 5597 5595 5592 5590 5588 5586 5585 5583 5581 5579 5575 5572 5569 5567 5564 5561 5559 5557 5554 5553 5552 5550
5587 5588 5587 5594 5601 5598 5604 5609 5609 5608 5607 5607 5606 5605 5606 5604 5602 5598 5595 5593 5591 5590 5588 5585 5583 5581 5578 5577 5575 5573 5572 5570 5566 5563 5561 5558 5556 5553 5551 5548 5545 5544 5543 5543